DELTA 1 DEB, 42081

Orbit data source: Space-Track

DELTA 1 DEB, 42081 is space debris in SSO originally from a launch on Sun, 15 Dec 1968 UTC launched from the Air Force Western Test Range (AFWTR). Debris objects in space refer to the collection of defunct objects orbiting the Earth. Examples of debris include non-operational satellites, rocket bodies, and fragments generated from explosions, collisions, or faulty payload assembly.

Loading next visibility...
Identifier
42081, 1968-114H
Orbit
SSO
Country
Flag of USUS
Related business
Manufacturer
Aerojet
Mission
Spacecraft
Bus & Motor
Unknown
Mass
Unknown
Launch date (UTC)
1968-12-15 (57 years ago)
Launch vehicle
Unknown
Launch site
Air Force Western Test Range (AFWTR)
Object type
Payload
Rocket body
Debris
Shape & HBR
Unknown shape, 0.1 m
Radar Cross Section
Small (<0.1 m²)

Expand to show TLE details & history
Last TLE update: 2 weeks ago

TLE from 2 weeks ago
0 DELTA 1 DEB
1 42081U 68114H   26026.67033995  .00000023  00000-0  53390-3 0  9991
2 42081 101.6847 341.0154 0116672 250.6027 108.2391 12.31779157485348
Epoch: 2026-01-26T16:05Z
TLE epoch observation values (Epoch: 2026-01-26T16:05:17.371Z)
Latitude
-0.00008°
Longitude
-26.26972°
Altitude
1,574.088 km
Speed
7.068 km/s
True Right ascension
22h 44m 03s
True Declination
0° 00' 00"
Sunlit
Object was in daylight at epoch
Visualization orbit readout
Latitude
Unknown
Longitude
Unknown
Altitude
Unknown
Speed
Unknown
Apparent Right ascension
Unknown
Apparent Declination
Unknown
Sunlit
N/A
Visualization observer readout
Local Sidereal Time
13:07:54
Azimuth
Unknown
Elevation
Unknown
Doppler factor
Unknown
Orbital elements
Apogee altitude
1,631.586 km
Perigee altitude
1,446.839 km
Semi-major axis
7,917.349 km
Eccentricity
0.01167
Inclination
101.6847°
RAAN
341.0154°
Arg. of periapsis
250.6027°
True anomaly
109.50302°
Mean anomaly
108.2391°
Eccentric anomaly
108.87165°
Mean motion
3.08087 °/min
Orbital period
116.85 mins
BSTAR
0.0005339
Loading maneuver chart data...
Computing Atmospheric mass density...
Loading historical data...
Loading historical data...
Loading historical data...
Loading historical data...
Loading historical data...
Loading historical data...
Loading historical data...

Documentation

Showing up to 5 results
|